Погода в Михайловке

Россия / Амурская область     49°54′56″N   128°50′41″E
темп.,
°C
ветер,
м/с
пор.,
м/с
влажн.,
%
обл.,
%
осадки,
мм/ч
давл.,
гПа
погр.,
м
5 декабря, вс
вс500:00−14ююз511875 0.0 1017281
03:00−14ю5119110 0.0 1016270
06:00−15ю410957 0.0 1015169
09:00−15ююв511958 0.0 1015193
12:00−9ююв51191100 0.0 1012381
15:00−8ююв499335 0.0 1011209
18:00−12ю3497100 0.0 101251
21:00−11ююз239991 0.1 101248
6 декабря, пн
пн600:00−16сз239969 0.0 101338
03:00−20сз2210084 0.0 101525
06:00−22сз2210061 0.0 101710
09:00−21зюз2210041 0.0 101925
12:00−11з36905 0.0 1019152
15:00−10зюз36915 0.0 102095
18:00−12з412865 0.0 1022173
21:00−15зюз369115 0.0 102454
7 декабря, вт
вт700:00−14ююз259295 0.0 102476
03:00−16ю349349 0.0 102447
06:00−15ю379480 0.0 1024106
09:00−14ю3693100 0.0 1025104
12:00−9ююз3589100 0.0 1025233
15:00−8ю249370 0.0 1025103
18:00−15ю229843 0.0 102610
21:00−18ююз2210070 0.0 10289
8 декабря, ср
ср800:00−19ююз1110060 0.0 10299
03:00−20ю1110070 0.0 10319
06:00−21юв2210078 0.0 103212
09:00−18ююв359850 0.0 103265
12:00−10ююв479134 0.0 1031158
15:00−8ююв49925 0.0 1029181
18:00−10ююв49945 0.0 1028115
21:00−9ююв499321 0.0 1027115
9 декабря, чт
чт900:00−10ююв41091100 0.0 1025136
03:00−8ююв51187100 0.0 1023168
06:00−6ююв51186100 0.0 1021196
09:00−5ююв51286100 0.0 1019227
12:00−2ююз51286100 0.0 1018656
15:00−2ююз51291100 0.1 1017703
18:00−2юз31098100 1.8 1018655
21:00−4сз6994100 2.8 1021451